Regional Weather Roundup
Issued by NWS Nashville, TN

Home | Current Version | Previous Version | Text Only | Print | Product List | Glossary On
Versions: 1 2 3 4 5 6 7 8 9 10 11 12 13 14 15 16 17 18 19 20 21 22 23 24 25 26 27 28 29 30 31 32 33 34 35 36 37 38 39 40 41 42 43 44 45 46 47 48 49 50
000
ASUS44 KOHX 302010
RWROHX
MIDDLE TENNESSEE HOURLY WEATHER ROUNDUP
NATIONAL WEATHER SERVICE NASHVILLE TN
300 PM CDT THU JUL 30 2015

NOTE: "FAIR" INDICATES FEW OR NO CLOUDS BELOW 12,000 FEET WITH
NO SIGNIFICANT WEATHER AND/OR OBSTRUCTIONS TO VISIBILITY.

* THESE REPORTS ARE NOT UNDER NWS QUALITY CONTROL AND MAY NOT
  REPORT WEATHER SUCH AS PRECIPITATION AND FOG.


TNZ005>011-023>034-057-059-062>066-078-080-302100
...NORTHERN MIDDLE TENNESSEE...

CITY           SKY/WX    TMP DP  RH WIND       PRES   REMARKS
CLARKSVILLE    SUNNY     85  61  44 N9        30.10F
CROSSVILLE     MOSUNNY   85  65  51 NW10      30.10F
DICKSON        SUNNY     82  63  51 N9        30.11F
NASHVILLE      MOSUNNY   89  59  36 N13       30.08F
ROCKWOOD       SUNNY     86  70  58 N9        30.08F HX  90
SMYRNA         SUNNY     92  59  33 N14       30.07F HX  91
$$
TNZ056-058-060-061-075>077-079-093>097-302100
...SOUTHERN MIDDLE TENNESSEE...

CITY           SKY/WX    TMP DP  RH WIND       PRES   REMARKS
COLUMBIA       SUNNY     88  63  42 N10       30.07F
LEWISBURG      SUNNY     89  55  31 N12       30.06
MCMINNVILLE    SUNNY     86  66  51 N13       30.07F
SHELBYVILLE    SUNNY     90  64  43 N10       30.07F HX  91
TULLAHOMA      SUNNY     86  61  42 N13       30.08F
WINCHESTER     SUNNY     88  70  55 N9        30.05F HX  92
$$


...KEY TO REMARKS...
VSB - VISIBILITY IN MILES
WCI - WIND CHILL INDEX
HX  - HEAT INDEX



USA.gov is the U.S. government's official web portal to all federal, state and local government web resources and services.